Point Salines, Grenada

5:51 AM AST on February 18, 2018 (GMT -0400)
Point Salines International

Weather History for TGPY - November, 2013

Change the Weather History Date:

Thursday, November 7, 2013

  Actual Average Record
Temperature  
Mean Temperature 82 °F -  
Max Temperature 86 °F 84 °F 90 °F (2012)
Min Temperature 77 °F 75 °F 74 °F (2017)
Cooling Degree Days 16    
Growing Degree Days 32 (Base 50)    
Moisture  
Dew Point 75 °F    
Average Humidity 80    
Maximum Humidity 94    
Minimum Humidity 36    
Precipitation  
Precipitation 0.03 in - - ()
Sea Level Pressure  
Sea Level Pressure 29.86 in    
Wind  
Wind Speed 12 mph ()    
Max Wind Speed 22 mph    
Max Gust Speed -    
Visibility 7.3 miles    
Events Rain    
Averages and records for this station are not official NWS values.
T = Trace of Precipitation, MM = Missing Value Source: Averaged Metar Reports

Daily Weather History Graph

Daily Weather History Graph

Search for Another Location

Airport or City:

Trip Planner

Search our weather history database for the weather conditions in past years. The results will help you decide how hot, cold, wet, or windy it might be!

Date:

Astronomy

Nov. 07, 2013 Rise Set
Actual Time 6:01 AM AST 5:39 PM AST
Civil Twilight 5:39 AM AST 6:01 PM AST
Nautical Twilight 5:14 AM AST 6:27 PM AST
Astronomical Twilight 4:48 AM AST 6:52 PM AST
Moon 9:57 AM AST (11/7) 9:52 PM AST (11/7)
Length of Visible Light 12h 22m
Length of Day
11h 38m
Waxing Crescent, 22% of the Moon is Illuminated
Nov 7
Waxing Crescent
Nov 10
First Quarter
Nov 17
Full
Nov 25
Last Quarter
Dec 2
New

Hourly Weather History & Observations

Time (AST) Temp. Heat Index Dew Point Humidity Pressure Visibility Wind Dir Wind Speed Gust Speed Precip Events Conditions
12:00 AM 80.6 °F 86.2 °F 75.2 °F 84% 29.89 in 6.2 mi East 13.8 mph - N/A   Partly Cloudy
1:00 AM 80.6 °F 86.2 °F 75.2 °F 84% 29.86 in 6.2 mi East 11.5 mph - N/A   Partly Cloudy
2:00 AM 80 °F - 76 °F 83%  in 11 mi East 11.5 mph - -  
2:00 AM 80.6 °F 86.2 °F 75.2 °F 84% 29.83 in 6.2 mi East 11.5 mph - N/A   Partly Cloudy
3:00 AM 80.6 °F 86.2 °F 75.2 °F 84% 29.83 in 6.2 mi ESE 9.2 mph - N/A   Partly Cloudy
4:00 AM 80.6 °F 86.2 °F 75.2 °F 84% 29.83 in 6.2 mi East 6.9 mph - N/A   Partly Cloudy
5:00 AM 80 °F - 76 °F 83% 29.84 in 11 mi East 9.2 mph - -   Widespread Dust
5:00 AM 78.8 °F - 75.2 °F 89% 29.83 in 6.2 mi East 9.2 mph - N/A   Partly Cloudy
6:00 AM 80.6 °F 87.1 °F 77.0 °F 89% 29.83 in 6.2 mi East 9.2 mph - N/A   Partly Cloudy
6:30 AM - - - N/A% - 6.2 mi ESE 16.1 mph - N/A   Scattered Clouds
7:00 AM 82.4 °F 90.9 °F 77.0 °F 84% 29.86 in 6.2 mi ESE 13.8 mph - N/A   Partly Cloudy
8:00 AM 85 °F - 77 °F 71% 29.89 in 9 mi East 13.8 mph - -   Widespread Dust
8:00 AM 84.2 °F 94.1 °F 77.0 °F 79% 29.89 in 6.2 mi East 13.8 mph - N/A   Partly Cloudy
9:00 AM 84.2 °F 94.1 °F 77.0 °F 79% 29.89 in 6.2 mi ESE 17.3 mph - N/A   Partly Cloudy
10:00 AM 84.2 °F 94.1 °F 77.0 °F 79% 29.92 in 6.2 mi SE 19.6 mph - N/A   Partly Cloudy
11:00 AM 86 °F - 75 °F 64% 29.91 in 7 mi ESE 21.9 mph - -   Widespread Dust
11:00 AM 86.0 °F 96.9 °F 77.0 °F 74% 29.89 in 6.2 mi ESE 21.9 mph - N/A   Partly Cloudy
12:00 PM 86.0 °F 96.9 °F 77.0 °F 74% 29.89 in 6.2 mi ESE 17.3 mph - N/A   Partly Cloudy
1:00 PM 86.0 °F 96.9 °F 77.0 °F 74% 29.86 in 6.2 mi SE 20.7 mph - N/A   Partly Cloudy
2:00 PM 85 °F - 77 °F 71% 29.85 in 14 mi ESE 19.6 mph - -   Widespread Dust
2:00 PM 86.0 °F 96.9 °F 77.0 °F 74% 29.83 in 6.2 mi ESE 19.6 mph - N/A   Partly Cloudy
3:00 PM 86.0 °F 96.9 °F 77.0 °F 74% 29.83 in 6.2 mi ESE 17.3 mph - N/A Rain Light Rain Showers
4:00 PM 82.4 °F 90.9 °F 77.0 °F 84% 29.83 in 6.2 mi SE 13.8 mph - N/A   Scattered Clouds
5:00 PM 81 °F - 74 °F 72% 29.84 in 16 mi ESE 9.2 mph - -   Partly Cloudy
5:00 PM 80.6 °F 85.4 °F 73.4 °F 79% 29.83 in 6.2 mi ESE 9.2 mph - N/A   Scattered Clouds
6:00 PM 80.6 °F 85.4 °F 73.4 °F 79% 29.83 in 6.2 mi East 11.5 mph - N/A   Scattered Clouds
7:00 PM 80.6 °F 85.4 °F 73.4 °F 79% 29.86 in 6.2 mi ESE 12.7 mph - N/A   Scattered Clouds
8:00 PM 77 °F - 75 °F 93% 29.90 in 6 mi East 15.0 mph - - Rain Light Rain Showers
8:00 PM 77.0 °F - 75.2 °F 94% 29.89 in 6.2 mi East 15.0 mph - N/A Rain Light Rain Showers
9:00 PM 77.0 °F - 73.4 °F 89% 29.89 in 6.2 mi East 5.8 mph - N/A   Mostly Cloudy
10:00 PM 80.6 °F 87.1 °F 77.0 °F 89% 29.89 in 6.2 mi East 6.9 mph - N/A   Mostly Cloudy
11:00 PM 81 °F - 59 °F 36% 29.91 in 11 mi ESE 11.5 mph - -   Widespread Dust
11:00 PM 80.6 °F 87.1 °F 77.0 °F 89% 29.89 in 6.2 mi ESE 11.5 mph - N/A   Scattered Clouds